Year,Month,Day,Hour,Minute,Value (Times are PST for windgust in km/hr)
2021,08,06,00,00,25.70
2021,08,06,00,01,27.40
2021,08,06,00,02,29.00
2021,08,06,00,03,29.00
2021,08,06,00,04,29.00
2021,08,06,00,05,29.00
2021,08,06,00,06,22.50
2021,08,06,00,07,22.50
2021,08,06,00,08,22.50
2021,08,06,00,09,22.50
2021,08,06,00,10,22.50
2021,08,06,00,11,19.30
2021,08,06,00,12,19.30
2021,08,06,00,13,19.30
2021,08,06,00,14,19.30
2021,08,06,00,15,19.30
2021,08,06,00,16,14.50
2021,08,06,00,17,14.50
2021,08,06,00,18,14.50
2021,08,06,00,19,14.50
2021,08,06,00,20,14.50
2021,08,06,00,21,20.90
2021,08,06,00,22,20.90
2021,08,06,00,23,20.90
2021,08,06,00,24,20.90
2021,08,06,00,25,20.90
2021,08,06,00,26,14.50
2021,08,06,00,27,19.30
2021,08,06,00,28,19.30
2021,08,06,00,29,24.10
2021,08,06,00,30,24.10
2021,08,06,00,31,24.10
2021,08,06,00,32,24.10
2021,08,06,00,33,24.10
2021,08,06,00,34,24.10
2021,08,06,00,35,24.10
2021,08,06,00,36,14.50
2021,08,06,00,37,14.50
2021,08,06,00,38,14.50
2021,08,06,00,39,14.50
2021,08,06,00,40,14.50
2021,08,06,00,41,11.30
2021,08,06,00,42,11.30
2021,08,06,00,43,12.90
2021,08,06,00,44,12.90
2021,08,06,00,45,16.10
2021,08,06,00,46,11.30
2021,08,06,00,47,11.30
2021,08,06,00,48,11.30
2021,08,06,00,49,17.70
2021,08,06,00,50,17.70
2021,08,06,00,51,12.90
2021,08,06,00,52,12.90
2021,08,06,00,53,12.90
2021,08,06,00,54,12.90
2021,08,06,00,55,12.90
2021,08,06,00,56,6.40
2021,08,06,00,57,6.40
2021,08,06,00,58,8.00
2021,08,06,00,59,9.70
2021,08,06,01,00,12.90
2021,08,06,01,01,11.30
2021,08,06,01,02,12.90
2021,08,06,01,03,20.90
2021,08,06,01,04,20.90
2021,08,06,01,05,20.90
2021,08,06,01,06,12.90
2021,08,06,01,07,12.90
2021,08,06,01,08,12.90
2021,08,06,01,09,12.90
2021,08,06,01,10,12.90
2021,08,06,01,11,9.70
2021,08,06,01,12,9.70
2021,08,06,01,13,14.50
2021,08,06,01,14,14.50
2021,08,06,01,15,22.50
2021,08,06,01,16,20.90
2021,08,06,01,17,22.50
2021,08,06,01,18,24.10
2021,08,06,01,19,24.10
2021,08,06,01,20,24.10
2021,08,06,01,21,12.90
2021,08,06,01,22,17.70
2021,08,06,01,23,27.40
2021,08,06,01,24,27.40
2021,08,06,01,25,27.40
2021,08,06,01,26,24.10
2021,08,06,01,27,24.10
2021,08,06,01,28,24.10
2021,08,06,01,29,24.10
2021,08,06,01,30,24.10
2021,08,06,01,31,11.30
2021,08,06,01,32,24.10
2021,08,06,01,33,24.10
2021,08,06,01,34,24.10
2021,08,06,01,35,24.10
2021,08,06,01,36,16.10
2021,08,06,01,37,16.10
2021,08,06,01,38,16.10
2021,08,06,01,39,16.10
2021,08,06,01,40,20.90
2021,08,06,01,41,22.50
2021,08,06,01,42,22.50
2021,08,06,01,43,30.60
2021,08,06,01,44,30.60
2021,08,06,01,45,30.60
2021,08,06,01,46,25.70
2021,08,06,01,47,25.70
2021,08,06,01,48,25.70
2021,08,06,01,49,25.70
2021,08,06,01,50,25.70
2021,08,06,01,51,29.00
2021,08,06,01,52,29.00
2021,08,06,01,53,29.00
2021,08,06,01,54,29.00
2021,08,06,01,55,29.00
2021,08,06,01,56,20.90
2021,08,06,01,57,27.40
2021,08,06,01,58,27.40
2021,08,06,01,59,27.40
2021,08,06,02,00,27.40
2021,08,06,02,01,24.10
2021,08,06,02,02,24.10
2021,08,06,02,03,24.10
2021,08,06,02,04,29.00
2021,08,06,02,05,29.00
2021,08,06,02,06,22.50
2021,08,06,02,07,22.50
2021,08,06,02,08,22.50
2021,08,06,02,09,24.10
2021,08,06,02,10,24.10
2021,08,06,02,11,16.10
2021,08,06,02,12,17.70
2021,08,06,02,13,17.70
2021,08,06,02,14,17.70
2021,08,06,02,15,17.70
2021,08,06,02,16,16.10
2021,08,06,02,17,16.10
2021,08,06,02,18,16.10
2021,08,06,02,19,16.10
2021,08,06,02,20,17.70
2021,08,06,02,21,14.50
2021,08,06,02,22,19.30
2021,08,06,02,23,19.30
2021,08,06,02,24,19.30
2021,08,06,02,25,19.30
2021,08,06,02,26,16.10
2021,08,06,02,27,16.10
2021,08,06,02,28,16.10
2021,08,06,02,29,16.10
2021,08,06,02,30,16.10
2021,08,06,02,31,8.00
2021,08,06,02,32,8.00
2021,08,06,02,33,11.30
2021,08,06,02,34,11.30
2021,08,06,02,35,11.30
2021,08,06,02,36,8.00
2021,08,06,02,37,8.00
2021,08,06,02,38,8.00
2021,08,06,02,39,8.00
2021,08,06,02,40,8.00
2021,08,06,02,41,4.80
2021,08,06,02,42,4.80
2021,08,06,02,43,8.00
2021,08,06,02,44,8.00
2021,08,06,02,45,8.00
2021,08,06,02,46,4.80
2021,08,06,02,47,6.40
2021,08,06,02,48,6.40
2021,08,06,02,49,6.40
2021,08,06,02,50,6.40
2021,08,06,02,51,1.60
2021,08,06,02,52,1.60
2021,08,06,02,53,1.60
2021,08,06,02,54,3.20
2021,08,06,02,55,3.20
2021,08,06,02,56,3.20
2021,08,06,02,57,4.80
2021,08,06,02,58,4.80
2021,08,06,02,59,4.80
2021,08,06,03,00,4.80
2021,08,06,03,01,4.80
2021,08,06,03,02,4.80
2021,08,06,03,03,4.80
2021,08,06,03,04,6.40
2021,08,06,03,05,6.40
2021,08,06,03,06,6.40
2021,08,06,03,07,6.40
2021,08,06,03,08,6.40
2021,08,06,03,09,6.40
2021,08,06,03,10,6.40
2021,08,06,03,11,4.80
2021,08,06,03,12,4.80
2021,08,06,03,13,6.40
2021,08,06,03,14,11.30
2021,08,06,03,15,11.30
2021,08,06,03,16,3.20
2021,08,06,03,17,3.20
2021,08,06,03,18,4.80
2021,08,06,03,19,6.40
2021,08,06,03,20,6.40
2021,08,06,03,21,1.60
2021,08,06,03,22,1.60
2021,08,06,03,23,1.60
2021,08,06,03,24,3.20
2021,08,06,03,25,11.30
2021,08,06,03,26,6.40
2021,08,06,03,27,8.00
2021,08,06,03,28,8.00
2021,08,06,03,29,8.00
2021,08,06,03,30,8.00
2021,08,06,03,31,3.20
2021,08,06,03,32,4.80
2021,08,06,03,33,6.40
2021,08,06,03,34,8.00
2021,08,06,03,35,9.70
2021,08,06,03,36,9.70
2021,08,06,03,37,11.30
2021,08,06,03,38,11.30
2021,08,06,03,39,11.30
2021,08,06,03,40,11.30
2021,08,06,03,41,8.00
2021,08,06,03,42,8.00
2021,08,06,03,43,8.00
2021,08,06,03,44,8.00
2021,08,06,03,45,8.00
2021,08,06,03,46,8.00
2021,08,06,03,47,9.70
2021,08,06,03,48,9.70
2021,08,06,03,49,9.70
2021,08,06,03,50,9.70
2021,08,06,03,51,4.80
2021,08,06,03,52,4.80
2021,08,06,03,53,4.80
2021,08,06,03,54,6.40
2021,08,06,03,55,6.40
2021,08,06,03,56,6.40
2021,08,06,03,57,6.40
2021,08,06,03,58,6.40
2021,08,06,03,59,9.70
2021,08,06,04,00,9.70
2021,08,06,04,01,16.10
2021,08,06,04,02,16.10
2021,08,06,04,03,16.10
2021,08,06,04,04,16.10
2021,08,06,04,05,16.10
2021,08,06,04,06,19.30
2021,08,06,04,07,19.30
2021,08,06,04,08,19.30
2021,08,06,04,09,19.30
2021,08,06,04,10,19.30
2021,08,06,04,11,3.20
2021,08,06,04,12,4.80
2021,08,06,04,13,4.80
2021,08,06,04,14,6.40
2021,08,06,04,15,6.40
2021,08,06,04,16,8.00
2021,08,06,04,17,8.00
2021,08,06,04,18,11.30
2021,08,06,04,19,11.30
2021,08,06,04,20,11.30
2021,08,06,04,21,8.00
2021,08,06,04,22,8.00
2021,08,06,04,23,8.00
2021,08,06,04,24,8.00
2021,08,06,04,25,8.00
2021,08,06,04,26,6.40
2021,08,06,04,27,8.00
2021,08,06,04,28,9.70
2021,08,06,04,29,9.70
2021,08,06,04,30,9.70
2021,08,06,04,31,6.40
2021,08,06,04,32,8.00
2021,08,06,04,33,8.00
2021,08,06,04,34,12.90
2021,08,06,04,35,12.90
2021,08,06,04,36,4.80
2021,08,06,04,37,4.80
2021,08,06,04,38,6.40
2021,08,06,04,39,6.40
2021,08,06,04,40,6.40
2021,08,06,04,41,6.40
2021,08,06,04,42,6.40
2021,08,06,04,43,6.40
2021,08,06,04,44,6.40
2021,08,06,04,45,6.40
2021,08,06,04,46,4.80
2021,08,06,04,47,4.80
2021,08,06,04,48,4.80
2021,08,06,04,49,4.80
2021,08,06,04,50,4.80
2021,08,06,04,51,4.80
2021,08,06,04,52,6.40
2021,08,06,04,53,6.40
2021,08,06,04,54,6.40
2021,08,06,04,55,8.00
2021,08,06,04,56,6.40
2021,08,06,04,57,8.00
2021,08,06,04,58,8.00
2021,08,06,04,59,8.00
2021,08,06,05,00,8.00
2021,08,06,05,01,4.80
2021,08,06,05,02,4.80
2021,08,06,05,03,4.80
2021,08,06,05,04,4.80
2021,08,06,05,05,4.80
2021,08,06,05,06,9.70
2021,08,06,05,07,9.70
2021,08,06,05,08,9.70
2021,08,06,05,09,9.70
2021,08,06,05,10,9.70
2021,08,06,05,11,4.80
2021,08,06,05,12,4.80
2021,08,06,05,13,4.80
2021,08,06,05,14,4.80
2021,08,06,05,15,6.40
2021,08,06,05,16,8.00
2021,08,06,05,17,8.00
2021,08,06,05,19,8.00
2021,08,06,05,20,8.00
2021,08,06,05,21,6.40
2021,08,06,05,22,6.40
2021,08,06,05,23,6.40
2021,08,06,05,24,6.40
2021,08,06,05,25,6.40
2021,08,06,05,26,4.80
2021,08,06,05,27,4.80
2021,08,06,05,28,4.80
2021,08,06,05,29,4.80
2021,08,06,05,30,8.00
2021,08,06,05,31,6.40
2021,08,06,05,32,8.00
2021,08,06,05,33,8.00
2021,08,06,05,34,8.00
2021,08,06,05,35,8.00
2021,08,06,05,36,6.40
2021,08,06,05,37,6.40
2021,08,06,05,38,6.40
2021,08,06,05,39,6.40
2021,08,06,05,40,6.40
2021,08,06,05,41,6.40
2021,08,06,05,42,6.40
2021,08,06,05,43,11.30
2021,08,06,05,44,11.30
2021,08,06,05,45,11.30
2021,08,06,05,46,6.40
2021,08,06,05,47,14.50
2021,08,06,05,48,14.50
2021,08,06,05,49,14.50
2021,08,06,05,50,14.50
2021,08,06,05,52,9.70
2021,08,06,05,53,9.70
2021,08,06,05,54,9.70
2021,08,06,05,55,9.70
2021,08,06,05,56,3.20
2021,08,06,05,57,3.20
2021,08,06,05,58,4.80
2021,08,06,05,59,9.70
2021,08,06,06,00,9.70
2021,08,06,06,01,8.00
2021,08,06,06,02,9.70
2021,08,06,06,03,9.70
2021,08,06,06,04,9.70
2021,08,06,06,05,9.70
2021,08,06,06,06,4.80
2021,08,06,06,07,4.80
2021,08,06,06,08,4.80
2021,08,06,06,09,4.80
2021,08,06,06,10,6.40
2021,08,06,06,11,8.00
2021,08,06,06,12,8.00
2021,08,06,06,13,8.00
2021,08,06,06,14,11.30
2021,08,06,06,15,11.30
2021,08,06,06,16,9.70
2021,08,06,06,17,9.70
2021,08,06,06,18,9.70
2021,08,06,06,19,9.70
2021,08,06,06,20,9.70
2021,08,06,06,22,6.40
2021,08,06,06,23,9.70
2021,08,06,06,24,11.30
2021,08,06,06,25,11.30
2021,08,06,06,27,8.00
2021,08,06,06,28,9.70
2021,08,06,06,29,9.70
2021,08,06,06,30,9.70
2021,08,06,06,31,11.30
2021,08,06,06,32,11.30
2021,08,06,06,34,11.30
2021,08,06,06,35,11.30
2021,08,06,06,36,8.00
2021,08,06,06,37,9.70
2021,08,06,06,38,9.70
2021,08,06,06,39,9.70
2021,08,06,06,40,11.30
2021,08,06,06,41,9.70
2021,08,06,06,42,9.70
2021,08,06,06,43,11.30
2021,08,06,06,44,11.30
2021,08,06,06,45,11.30
2021,08,06,06,46,11.30
2021,08,06,06,47,11.30
2021,08,06,06,48,12.90
2021,08,06,06,49,12.90
2021,08,06,06,50,12.90
2021,08,06,06,52,8.00
2021,08,06,06,53,8.00
2021,08,06,06,54,8.00
2021,08,06,06,55,8.00
2021,08,06,06,57,1.60
2021,08,06,06,58,3.20
2021,08,06,06,59,3.20
2021,08,06,07,00,3.20
2021,08,06,07,01,6.40
2021,08,06,07,02,6.40
2021,08,06,07,03,6.40
2021,08,06,07,04,6.40
2021,08,06,07,05,6.40
2021,08,06,07,06,8.00
2021,08,06,07,07,8.00
2021,08,06,07,09,14.50
2021,08,06,07,10,14.50
2021,08,06,07,11,4.80
2021,08,06,07,12,6.40
2021,08,06,07,13,12.90
2021,08,06,07,14,12.90
2021,08,06,07,15,14.50
2021,08,06,07,16,11.30
2021,08,06,07,17,11.30
2021,08,06,07,18,12.90
2021,08,06,07,19,12.90
2021,08,06,07,20,12.90
2021,08,06,07,21,6.40
2021,08,06,07,22,8.00
2021,08,06,07,23,8.00
2021,08,06,07,24,8.00
2021,08,06,07,25,6.40
2021,08,06,07,27,8.00
2021,08,06,07,28,8.00
2021,08,06,07,29,16.10
2021,08,06,07,30,16.10
2021,08,06,07,31,8.00
2021,08,06,07,32,9.70
2021,08,06,07,33,9.70
2021,08,06,07,34,9.70
2021,08,06,07,35,9.70
2021,08,06,07,36,6.40
2021,08,06,07,37,6.40
2021,08,06,07,38,8.00
2021,08,06,07,39,8.00
2021,08,06,07,40,8.00
2021,08,06,07,41,4.80
2021,08,06,07,42,4.80
2021,08,06,07,43,4.80
2021,08,06,07,45,4.80
2021,08,06,07,46,1.60
2021,08,06,07,47,3.20
2021,08,06,07,48,4.80
2021,08,06,07,49,4.80
2021,08,06,07,50,4.80
2021,08,06,07,51,3.20
2021,08,06,07,52,3.20
2021,08,06,07,53,6.40
2021,08,06,07,54,6.40
2021,08,06,07,55,6.40
2021,08,06,07,56,6.40
2021,08,06,07,57,6.40
2021,08,06,07,58,6.40
2021,08,06,07,59,9.70
2021,08,06,08,00,14.50
2021,08,06,08,02,14.50
2021,08,06,08,03,17.70
2021,08,06,08,04,17.70
2021,08,06,08,05,17.70
2021,08,06,08,06,12.90
2021,08,06,08,07,12.90
2021,08,06,08,08,12.90
2021,08,06,08,09,12.90
2021,08,06,08,10,12.90
2021,08,06,08,11,14.50
2021,08,06,08,12,14.50
2021,08,06,08,13,17.70
2021,08,06,08,14,17.70
2021,08,06,08,15,19.30
2021,08,06,08,17,19.30
2021,08,06,08,18,19.30
2021,08,06,08,19,22.50
2021,08,06,08,20,22.50
2021,08,06,08,21,17.70
2021,08,06,08,22,22.50
2021,08,06,08,23,22.50
2021,08,06,08,24,25.70
2021,08,06,08,25,25.70
2021,08,06,08,26,22.50
2021,08,06,08,27,27.40
2021,08,06,08,28,30.60
2021,08,06,08,29,30.60
2021,08,06,08,30,30.60
2021,08,06,08,32,29.00
2021,08,06,08,33,29.00
2021,08,06,08,35,29.00
2021,08,06,08,36,25.70
2021,08,06,08,37,25.70
2021,08,06,08,38,25.70
2021,08,06,08,39,25.70
2021,08,06,08,40,25.70
2021,08,06,08,41,35.40
2021,08,06,08,42,35.40
2021,08,06,08,43,35.40
2021,08,06,08,44,35.40
2021,08,06,08,45,24.10
2021,08,06,08,47,24.10
2021,08,06,08,48,24.10
2021,08,06,08,49,24.10
2021,08,06,08,50,24.10
2021,08,06,08,51,24.10
2021,08,06,08,52,24.10
2021,08,06,08,53,24.10
2021,08,06,08,54,24.10
2021,08,06,08,55,27.40
2021,08,06,08,56,29.00
2021,08,06,08,57,29.00
2021,08,06,08,58,29.00
2021,08,06,08,59,29.00
2021,08,06,09,00,16.10
2021,08,06,09,01,19.30
2021,08,06,09,03,22.50
2021,08,06,09,04,24.10
2021,08,06,09,05,24.10
2021,08,06,09,06,20.90
2021,08,06,09,07,20.90
2021,08,06,09,08,20.90
2021,08,06,09,09,20.90
2021,08,06,09,10,22.50
2021,08,06,09,12,22.50
2021,08,06,09,13,22.50
2021,08,06,09,14,22.50
2021,08,06,09,15,22.50
2021,08,06,09,16,17.70
2021,08,06,09,17,17.70
2021,08,06,09,18,17.70
2021,08,06,09,19,27.40
2021,08,06,09,20,20.90
2021,08,06,09,21,24.10
2021,08,06,09,22,25.70
2021,08,06,09,23,25.70
2021,08,06,09,24,25.70
2021,08,06,09,25,20.90
2021,08,06,09,27,20.90
2021,08,06,09,28,20.90
2021,08,06,09,29,20.90
2021,08,06,09,30,20.90
2021,08,06,09,31,16.10
2021,08,06,09,32,19.30
2021,08,06,09,33,19.30
2021,08,06,09,34,19.30
2021,08,06,09,35,19.30
2021,08,06,09,36,16.10
2021,08,06,09,37,17.70
2021,08,06,09,38,17.70
2021,08,06,09,39,17.70
2021,08,06,09,40,12.90
2021,08,06,09,41,19.30
2021,08,06,09,42,20.90
2021,08,06,09,43,20.90
2021,08,06,09,44,20.90
2021,08,06,09,45,17.70
2021,08,06,09,47,17.70
2021,08,06,09,49,17.70
2021,08,06,09,50,17.70
2021,08,06,09,51,11.30
2021,08,06,09,52,16.10
2021,08,06,09,53,19.30
2021,08,06,09,54,19.30
2021,08,06,09,55,19.30
2021,08,06,09,56,16.10
2021,08,06,09,57,20.90
2021,08,06,09,58,27.40
2021,08,06,09,59,27.40
2021,08,06,10,00,20.90
2021,08,06,10,01,20.90
2021,08,06,10,02,20.90
2021,08,06,10,03,24.10
2021,08,06,10,04,24.10
2021,08,06,10,05,16.10
2021,08,06,10,07,24.10
2021,08,06,10,08,27.40
2021,08,06,10,09,30.60
2021,08,06,10,10,30.60
2021,08,06,10,11,22.50
2021,08,06,10,12,22.50
2021,08,06,10,13,22.50
2021,08,06,10,14,24.10
2021,08,06,10,15,22.50
2021,08,06,10,16,22.50
2021,08,06,10,17,24.10
2021,08,06,10,18,24.10
2021,08,06,10,19,24.10
2021,08,06,10,20,17.70
2021,08,06,10,22,20.90
2021,08,06,10,23,22.50
2021,08,06,10,24,22.50
2021,08,06,10,25,22.50
2021,08,06,10,26,22.50
2021,08,06,10,28,24.10
2021,08,06,10,29,24.10
2021,08,06,10,31,16.10
2021,08,06,10,32,17.70
2021,08,06,10,34,17.70
2021,08,06,10,35,17.70
2021,08,06,10,36,19.30
2021,08,06,10,37,19.30
2021,08,06,10,38,19.30
2021,08,06,10,39,19.30
2021,08,06,10,40,24.10
2021,08,06,10,41,19.30
2021,08,06,10,42,22.50
2021,08,06,10,43,22.50
2021,08,06,10,44,22.50
2021,08,06,10,45,17.70
2021,08,06,10,46,17.70
2021,08,06,10,48,22.50
2021,08,06,10,49,22.50
2021,08,06,10,50,22.50
2021,08,06,10,51,17.70
2021,08,06,10,52,17.70
2021,08,06,10,53,20.90
2021,08,06,10,55,20.90
2021,08,06,10,57,20.90
2021,08,06,10,58,20.90
2021,08,06,10,59,20.90
2021,08,06,11,00,20.90
2021,08,06,11,01,17.70
2021,08,06,11,02,17.70
2021,08,06,11,03,17.70
2021,08,06,11,04,20.90
2021,08,06,11,05,20.90
2021,08,06,11,07,20.90
2021,08,06,11,08,20.90
2021,08,06,11,09,20.90
2021,08,06,11,10,25.70
2021,08,06,11,11,17.70
2021,08,06,11,13,20.90
2021,08,06,11,14,22.50
2021,08,06,11,15,22.50
2021,08,06,11,16,19.30
2021,08,06,11,17,19.30
2021,08,06,11,18,24.10
2021,08,06,11,19,24.10
2021,08,06,11,20,24.10
2021,08,06,11,21,24.10
2021,08,06,11,22,24.10
2021,08,06,11,23,24.10
2021,08,06,11,24,24.10
2021,08,06,11,25,25.70
2021,08,06,11,27,25.70
2021,08,06,11,28,32.20
2021,08,06,11,30,32.20
2021,08,06,11,31,22.50
2021,08,06,11,32,22.50
2021,08,06,11,33,24.10
2021,08,06,11,34,24.10
2021,08,06,11,35,24.10
2021,08,06,11,36,25.70
2021,08,06,11,37,29.00
2021,08,06,11,38,29.00
2021,08,06,11,39,29.00
2021,08,06,11,40,20.90
2021,08,06,11,42,27.40
2021,08,06,11,43,27.40
2021,08,06,11,45,27.40
2021,08,06,11,46,22.50
2021,08,06,11,47,25.70
2021,08,06,11,48,25.70
2021,08,06,11,49,25.70
2021,08,06,11,50,20.90
2021,08,06,11,51,20.90
2021,08,06,11,53,22.50
2021,08,06,11,54,22.50
2021,08,06,11,55,19.30
2021,08,06,11,56,22.50
2021,08,06,11,58,22.50
2021,08,06,11,59,22.50
2021,08,06,12,00,20.90
2021,08,06,12,01,20.90
2021,08,06,12,03,20.90
2021,08,06,12,04,20.90
2021,08,06,12,05,16.10
2021,08,06,12,06,22.50
2021,08,06,12,08,22.50
2021,08,06,12,09,22.50
2021,08,06,12,11,19.30
2021,08,06,12,12,22.50
2021,08,06,12,13,22.50
2021,08,06,12,14,25.70
2021,08,06,12,15,25.70
2021,08,06,12,16,17.70
2021,08,06,12,17,25.70
2021,08,06,12,18,29.00
2021,08,06,12,19,29.00
2021,08,06,12,20,20.90
2021,08,06,12,21,24.10
2021,08,06,12,22,24.10
2021,08,06,12,23,24.10
2021,08,06,12,25,25.70
2021,08,06,12,26,27.40
2021,08,06,12,27,27.40
2021,08,06,12,29,27.40
2021,08,06,12,30,24.10
2021,08,06,12,31,24.10
2021,08,06,12,32,24.10
2021,08,06,12,33,24.10
2021,08,06,12,34,24.10
2021,08,06,12,36,20.90
2021,08,06,12,37,20.90
2021,08,06,12,38,20.90
2021,08,06,12,39,22.50
2021,08,06,12,40,22.50
2021,08,06,12,41,24.10
2021,08,06,12,43,24.10
2021,08,06,12,44,24.10
2021,08,06,12,45,19.30
2021,08,06,12,46,19.30
2021,08,06,12,47,19.30
2021,08,06,12,49,19.30
2021,08,06,12,50,20.90
2021,08,06,12,51,24.10
2021,08,06,12,52,24.10
2021,08,06,12,53,24.10
2021,08,06,12,55,24.10
2021,08,06,12,56,17.70
2021,08,06,12,57,20.90
2021,08,06,12,58,22.50
2021,08,06,12,59,22.50
2021,08,06,13,00,14.50
2021,08,06,13,02,19.30
2021,08,06,13,03,22.50
2021,08,06,13,04,24.10
2021,08,06,13,05,25.70
2021,08,06,13,06,25.70
2021,08,06,13,07,27.40
2021,08,06,13,08,27.40
2021,08,06,13,09,30.60
2021,08,06,13,10,27.40
2021,08,06,13,11,27.40
2021,08,06,13,12,32.20
2021,08,06,13,13,32.20
2021,08,06,13,14,32.20
2021,08,06,13,15,25.70
2021,08,06,13,16,32.20
2021,08,06,13,17,32.20
2021,08,06,13,19,32.20
2021,08,06,13,20,32.20
2021,08,06,13,21,30.60
2021,08,06,13,22,30.60
2021,08,06,13,23,30.60
2021,08,06,13,24,30.60
2021,08,06,13,25,25.70
2021,08,06,13,26,32.20
2021,08,06,13,27,32.20
2021,08,06,13,28,32.20
2021,08,06,13,29,32.20
2021,08,06,13,30,20.90
2021,08,06,13,31,27.40
2021,08,06,13,33,27.40
2021,08,06,13,34,27.40
2021,08,06,13,35,17.70
2021,08,06,13,36,19.30
2021,08,06,13,37,19.30
2021,08,06,13,38,22.50
2021,08,06,13,39,24.10
2021,08,06,13,40,22.50
2021,08,06,13,41,29.00
2021,08,06,13,42,29.00
2021,08,06,13,43,29.00
2021,08,06,13,44,29.00
2021,08,06,13,45,20.90
2021,08,06,13,46,20.90
2021,08,06,13,47,24.10
2021,08,06,13,48,24.10
2021,08,06,13,49,24.10
2021,08,06,13,50,24.10
2021,08,06,13,51,25.70
2021,08,06,13,52,25.70
2021,08,06,13,54,25.70
2021,08,06,13,55,25.70
2021,08,06,13,57,25.70
2021,08,06,13,58,29.00
2021,08,06,13,59,29.00
2021,08,06,14,00,24.10
2021,08,06,14,02,24.10
2021,08,06,14,03,29.00
2021,08,06,14,04,29.00
2021,08,06,14,05,24.10
2021,08,06,14,06,24.10
2021,08,06,14,07,24.10
2021,08,06,14,08,24.10
2021,08,06,14,09,24.10
2021,08,06,14,10,17.70
2021,08,06,14,11,25.70
2021,08,06,14,12,29.00
2021,08,06,14,14,29.00
2021,08,06,14,15,29.00
2021,08,06,14,16,20.90
2021,08,06,14,17,22.50
2021,08,06,14,18,22.50
2021,08,06,14,19,24.10
2021,08,06,14,20,25.70
2021,08,06,14,21,25.70
2021,08,06,14,23,25.70
2021,08,06,14,24,25.70
2021,08,06,14,25,17.70
2021,08,06,14,26,17.70
2021,08,06,14,27,17.70
2021,08,06,14,28,20.90
2021,08,06,14,29,27.40
2021,08,06,14,30,17.70
2021,08,06,14,31,20.90
2021,08,06,14,32,22.50
2021,08,06,14,33,22.50
2021,08,06,14,34,22.50
2021,08,06,14,35,19.30
2021,08,06,14,36,19.30
2021,08,06,14,37,29.00
2021,08,06,14,38,29.00
2021,08,06,14,39,29.00
2021,08,06,14,41,27.40
2021,08,06,14,42,27.40
2021,08,06,14,43,27.40
2021,08,06,14,45,27.40
2021,08,06,14,46,20.90
2021,08,06,14,47,20.90
2021,08,06,14,48,25.70
2021,08,06,14,49,25.70
2021,08,06,14,51,25.70
2021,08,06,14,52,25.70
2021,08,06,14,53,25.70
2021,08,06,14,54,25.70
2021,08,06,14,55,25.70
2021,08,06,14,56,17.70
2021,08,06,14,57,22.50
2021,08,06,14,58,24.10
2021,08,06,14,59,24.10
2021,08,06,15,00,24.10
2021,08,06,15,01,22.50
2021,08,06,15,02,27.40
2021,08,06,15,03,27.40
2021,08,06,15,04,27.40
2021,08,06,15,05,27.40
2021,08,06,15,06,17.70
2021,08,06,15,07,20.90
2021,08,06,15,08,20.90
2021,08,06,15,09,20.90
2021,08,06,15,10,20.90
2021,08,06,15,11,17.70
2021,08,06,15,12,17.70
2021,08,06,15,13,20.90
2021,08,06,15,14,20.90
2021,08,06,15,15,24.10
2021,08,06,15,16,27.40
2021,08,06,15,17,27.40
2021,08,06,15,18,27.40
2021,08,06,15,19,27.40
2021,08,06,15,20,27.40
2021,08,06,15,21,19.30
2021,08,06,15,22,19.30
2021,08,06,15,23,20.90
2021,08,06,15,24,24.10
2021,08,06,15,25,24.10
2021,08,06,15,26,25.70
2021,08,06,15,27,25.70
2021,08,06,15,28,25.70
2021,08,06,15,29,25.70
2021,08,06,15,30,25.70
2021,08,06,15,31,20.90
2021,08,06,15,32,20.90
2021,08,06,15,33,20.90
2021,08,06,15,34,22.50
2021,08,06,15,35,22.50
2021,08,06,15,36,12.90
2021,08,06,15,37,19.30
2021,08,06,15,38,20.90
2021,08,06,15,39,20.90
2021,08,06,15,40,20.90
2021,08,06,15,41,17.70
2021,08,06,15,42,17.70
2021,08,06,15,43,22.50
2021,08,06,15,44,22.50
2021,08,06,15,45,22.50
2021,08,06,15,46,20.90
2021,08,06,15,47,20.90
2021,08,06,15,48,25.70
2021,08,06,15,49,25.70
2021,08,06,15,50,25.70
2021,08,06,15,51,27.40
2021,08,06,15,52,30.60
2021,08,06,15,53,30.60
2021,08,06,15,54,30.60
2021,08,06,15,55,30.60
2021,08,06,15,56,20.90
2021,08,06,15,57,24.10
2021,08,06,15,58,24.10
2021,08,06,15,59,24.10
2021,08,06,16,00,24.10
2021,08,06,16,01,14.50
2021,08,06,16,02,17.70
2021,08,06,16,03,17.70
2021,08,06,16,04,17.70
2021,08,06,16,05,17.70
2021,08,06,16,06,19.30
2021,08,06,16,07,19.30
2021,08,06,16,08,19.30
2021,08,06,16,09,24.10
2021,08,06,16,10,24.10
2021,08,06,16,11,16.10
2021,08,06,16,12,24.10
2021,08,06,16,13,24.10
2021,08,06,16,14,24.10
2021,08,06,16,15,25.70
2021,08,06,16,16,16.10
2021,08,06,16,17,24.10
2021,08,06,16,18,25.70
2021,08,06,16,19,25.70
2021,08,06,16,20,25.70
2021,08,06,16,21,20.90
2021,08,06,16,22,20.90
2021,08,06,16,23,20.90
2021,08,06,16,24,20.90
2021,08,06,16,25,24.10
2021,08,06,16,26,22.50
2021,08,06,16,27,22.50
2021,08,06,16,28,27.40
2021,08,06,16,29,27.40
2021,08,06,16,30,27.40
2021,08,06,16,31,17.70
2021,08,06,16,32,19.30
2021,08,06,16,33,19.30
2021,08,06,16,34,20.90
2021,08,06,16,35,20.90
2021,08,06,16,36,19.30
2021,08,06,16,37,22.50
2021,08,06,16,38,22.50
2021,08,06,16,39,22.50
2021,08,06,16,40,22.50
2021,08,06,16,41,12.90
2021,08,06,16,42,17.70
2021,08,06,16,43,19.30
2021,08,06,16,44,19.30
2021,08,06,16,45,19.30
2021,08,06,16,46,17.70
2021,08,06,16,47,17.70
2021,08,06,16,48,17.70
2021,08,06,16,49,19.30
2021,08,06,16,50,27.40
2021,08,06,16,51,16.10
2021,08,06,16,52,17.70
2021,08,06,16,53,22.50
2021,08,06,16,54,30.60
2021,08,06,16,55,30.60
2021,08,06,16,56,22.50
2021,08,06,16,57,22.50
2021,08,06,16,58,22.50
2021,08,06,16,59,22.50
2021,08,06,17,00,24.10
2021,08,06,17,01,22.50
2021,08,06,17,02,27.40
2021,08,06,17,03,27.40
2021,08,06,17,04,27.40
2021,08,06,17,05,27.40
2021,08,06,17,06,22.50
2021,08,06,17,07,24.10
2021,08,06,17,08,24.10
2021,08,06,17,09,24.10
2021,08,06,17,10,24.10
2021,08,06,17,11,24.10
2021,08,06,17,12,25.70
2021,08,06,17,13,25.70
2021,08,06,17,14,25.70
2021,08,06,17,15,25.70
2021,08,06,17,16,20.90
2021,08,06,17,17,24.10
2021,08,06,17,18,24.10
2021,08,06,17,19,24.10
2021,08,06,17,20,30.60
2021,08,06,17,21,20.90
2021,08,06,17,22,24.10
2021,08,06,17,23,24.10
2021,08,06,17,24,30.60
2021,08,06,17,25,30.60
2021,08,06,17,26,24.10
2021,08,06,17,27,24.10
2021,08,06,17,28,25.70
2021,08,06,17,29,25.70
2021,08,06,17,30,25.70
2021,08,06,17,31,20.90
2021,08,06,17,32,24.10
2021,08,06,17,33,29.00
2021,08,06,17,34,29.00
2021,08,06,17,35,29.00
2021,08,06,17,36,24.10
2021,08,06,17,37,24.10
2021,08,06,17,38,24.10
2021,08,06,17,39,24.10
2021,08,06,17,40,24.10
2021,08,06,17,41,17.70
2021,08,06,17,42,22.50
2021,08,06,17,43,22.50
2021,08,06,17,44,22.50
2021,08,06,17,45,22.50
2021,08,06,17,46,17.70
2021,08,06,17,47,19.30
2021,08,06,17,48,19.30
2021,08,06,17,49,19.30
2021,08,06,17,50,20.90
2021,08,06,17,51,22.50
2021,08,06,17,52,22.50
2021,08,06,17,53,22.50
2021,08,06,17,54,22.50
2021,08,06,17,55,22.50
2021,08,06,17,56,17.70
2021,08,06,17,57,17.70
2021,08,06,17,58,19.30
2021,08,06,17,59,19.30
2021,08,06,18,00,20.90
2021,08,06,18,01,20.90
2021,08,06,18,02,20.90
2021,08,06,18,03,20.90
2021,08,06,18,04,20.90
2021,08,06,18,05,20.90
2021,08,06,18,06,16.10
2021,08,06,18,07,20.90
2021,08,06,18,08,24.10
2021,08,06,18,09,24.10
2021,08,06,18,10,24.10
2021,08,06,18,11,17.70
2021,08,06,18,12,22.50
2021,08,06,18,13,22.50
2021,08,06,18,14,22.50
2021,08,06,18,15,29.00
2021,08,06,18,16,17.70
2021,08,06,18,17,25.70
2021,08,06,18,18,25.70
2021,08,06,18,19,25.70
2021,08,06,18,20,25.70
2021,08,06,18,21,17.70
2021,08,06,18,22,19.30
2021,08,06,18,23,20.90
2021,08,06,18,24,20.90
2021,08,06,18,25,20.90
2021,08,06,18,26,16.10